• In Kazakhstan
  • List of Countries
  • For 7 days
  • Water Temperature
  • Satellite Maps
  • Weather Map
  • News
  • Weather Widgets
  • user-avatar
    Login

    Hourly Weather La Massana

    Today, 20 January, Sunday

    Time Temperature Precipitation Wind Pressure Humidity
    00:00 -6°C° 0 mm 2 mps 601 mmHg 80%
    01:00 -4°C° 0.2 mm 1 mps 601 mmHg 83%
    02:00 -3°C° 0.2 mm 1 mps 600 mmHg 86%
    03:00 -3°C° 0.2 mm 1 mps 600 mmHg 89%
    04:00 -3°C° 0.1 mm 1 mps 601 mmHg 87%
    05:00 -3°C° 0.1 mm 1 mps 601 mmHg 86%
    06:00 -3°C° 0 mm 1 mps 601 mmHg 82%
    07:00 -2°C° 0.1 mm 1 mps 601 mmHg 78%
    08:00 -2°C° 0.1 mm 1 mps 602 mmHg 74%
    09:00 -2°C° 0.1 mm 1 mps 602 mmHg 69%
    10:00 -3°C° 0 mm 2 mps 603 mmHg 64%
    11:00 -2°C° 0 mm 2 mps 603 mmHg 59%
    12:00 -1°C° 0 mm 2 mps 604 mmHg 54%
    13:00 -1°C° 0 mm 2 mps 603 mmHg 58%
    14:00 -2°C° 0 mm 3 mps 603 mmHg 61%
    15:00 -2°C° 0 mm 3 mps 603 mmHg 64%
    16:00 -4°C° 0.1 mm 3 mps 603 mmHg 72%
    17:00 -4°C° 0.1 mm 2 mps 603 mmHg 80%
    18:00 -5°C° 0.1 mm 2 mps 603 mmHg 87%
    19:00 -5°C° 0.1 mm 2 mps 603 mmHg 88%
    20:00 -6°C° 0.1 mm 2 mps 604 mmHg 88%
    21:00 -6°C° 0.1 mm 2 mps 604 mmHg 89%
    22:00 -6°C° 0 mm 2 mps 604 mmHg 89%
    23:00 -6°C° 0 mm 2 mps 604 mmHg 89%

    Tomorrow, 21 January, Monday

    Time Temperature Precipitation Wind Pressure Humidity
    00:00 -6°C° 0 mm 2 mps 604 mmHg 88%
    01:00 -6°C° 0.1 mm 2 mps 604 mmHg 88%
    02:00 -6°C° 0.1 mm 2 mps 604 mmHg 88%
    03:00 -6°C° 0.1 mm 2 mps 604 mmHg 88%
    04:00 -6°C° 0.1 mm 2 mps 604 mmHg 87%
    05:00 -6°C° 0.1 mm 2 mps 605 mmHg 87%
    06:00 -7°C° 0.1 mm 2 mps 605 mmHg 87%
    07:00 -6°C° 0.2 mm 2 mps 605 mmHg 84%
    08:00 -7°C° 0.2 mm 3 mps 606 mmHg 81%
    09:00 -7°C° 0.2 mm 3 mps 606 mmHg 79%
    10:00 -6°C° 0.1 mm 3 mps 606 mmHg 75%
    11:00 -6°C° 0.1 mm 3 mps 607 mmHg 71%
    12:00 -5°C° 0.1 mm 3 mps 607 mmHg 67%
    13:00 -5°C° 0.1 mm 3 mps 607 mmHg 68%
    14:00 -5°C° 0.1 mm 3 mps 606 mmHg 68%
    15:00 -5°C° 0.1 mm 3 mps 606 mmHg 69%
    16:00 -7°C° 0 mm 3 mps 606 mmHg 75%
    17:00 -8°C° 0 mm 3 mps 606 mmHg 81%
    18:00 -8°C° 0 mm 2 mps 605 mmHg 86%
    19:00 -9°C° 0 mm 2 mps 605 mmHg 86%
    20:00 -9°C° 0 mm 2 mps 605 mmHg 86%
    21:00 -10°C° 0 mm 2 mps 605 mmHg 86%
    22:00 -10°C° 0 mm 2 mps 605 mmHg 82%
    23:00 -12°C° 0 mm 2 mps 604 mmHg 79%

    Day after tomorrow, 22 January, Tuesday

    Time Temperature Precipitation Wind Pressure Humidity
    00:00 -12°C° 0 mm 2 mps 604 mmHg 75%
    01:00 -12°C° 0 mm 2 mps 604 mmHg 69%
    02:00 -12°C° 0 mm 2 mps 603 mmHg 62%
    03:00 -12°C° 0 mm 2 mps 603 mmHg 55%
    04:00 -12°C° 0 mm 2 mps 602 mmHg 51%
    05:00 -12°C° 0 mm 2 mps 602 mmHg 46%
    06:00 -10°C° 0 mm 1 mps 602 mmHg 41%
    07:00 -8°C° 0 mm 1 mps 602 mmHg 40%
    08:00 -7°C° 0 mm 1 mps 602 mmHg 39%
    09:00 -4°C° 0 mm 1 mps 603 mmHg 39%
    10:00 -3°C° 0.1 mm 1 mps 602 mmHg 41%
    11:00 -2°C° 0.1 mm 1 mps 602 mmHg 44%
    12:00 -1°C° 0.1 mm 1 mps 602 mmHg 46%
    13:00 -4°C° 0.7 mm 2 mps 601 mmHg 57%
    14:00 -4°C° 0.7 mm 2 mps 600 mmHg 69%
    15:00 -6°C° 0.7 mm 3 mps 599 mmHg 80%
    16:00 -7°C° 0.4 mm 3 mps 599 mmHg 83%
    17:00 -6°C° 0.4 mm 2 mps 598 mmHg 85%
    18:00 -7°C° 0.4 mm 2 mps 598 mmHg 88%
    19:00 -7°C° 0.7 mm 2 mps 598 mmHg 89%
    20:00 -7°C° 0.7 mm 2 mps 598 mmHg 91%
    21:00 -8°C° 0.7 mm 3 mps 598 mmHg 92%
    22:00 -8°C° 1.2 mm 3 mps 597 mmHg 92%
    23:00 -9°C° 1.2 mm 3 mps 597 mmHg 92%

    23 January, Wednesday

    Time Temperature Precipitation Wind Pressure Humidity
    00:00 -10°C° 1.2 mm 4 mps 597 mmHg 92%
    01:00 -11°C° 1.3 mm 4 mps 596 mmHg 93%
    02:00 -11°C° 1.3 mm 4 mps 596 mmHg 93%
    03:00 -11°C° 1.3 mm 4 mps 595 mmHg 94%
    04:00 -10°C° 1.7 mm 3 mps 595 mmHg 95%
    05:00 -10°C° 1.7 mm 3 mps 594 mmHg 95%
    06:00 -10°C° 1.7 mm 3 mps 594 mmHg 95%
    07:00 -12°C° 1.8 mm 3 mps 594 mmHg 95%
    08:00 -12°C° 1.8 mm 3 mps 594 mmHg 94%
    09:00 -12°C° 1.8 mm 4 mps 594 mmHg 94%
    10:00 -12°C° 0.8 mm 4 mps 594 mmHg 92%
    11:00 -13°C° 0.8 mm 5 mps 594 mmHg 91%
    12:00 -14°C° 0.8 mm 6 mps 594 mmHg 89%
    13:00 -14°C° 0.5 mm 6 mps 594 mmHg 90%
    14:00 -14°C° 0.5 mm 6 mps 594 mmHg 90%
    15:00 -14°C° 0.5 mm 7 mps 593 mmHg 91%
    16:00 -15°C° 0.4 mm 7 mps 594 mmHg 91%
    17:00 -15°C° 0.4 mm 7 mps 594 mmHg 92%
    18:00 -17°C° 0.4 mm 7 mps 594 mmHg 92%
    19:00 -17°C° 0.5 mm 7 mps 595 mmHg 92%
    20:00 -17°C° 0.5 mm 7 mps 595 mmHg 92%
    21:00 -17°C° 0.5 mm 7 mps 596 mmHg 92%
    22:00 -17°C° 0.4 mm 7 mps 596 mmHg 92%
    23:00 -17°C° 0.4 mm 7 mps 596 mmHg 92%

    24 January, Thursday

    Time Temperature Precipitation Wind Pressure Humidity
    00:00 -17°C° 0.4 mm 6 mps 596 mmHg 92%
    01:00 -17°C° 0.3 mm 6 mps 596 mmHg 92%
    02:00 -17°C° 0.3 mm 5 mps 596 mmHg 91%
    03:00 -17°C° 0.3 mm 5 mps 596 mmHg 91%
    04:00 -17°C° 0.1 mm 5 mps 597 mmHg 90%
    05:00 -16°C° 0.1 mm 4 mps 597 mmHg 90%
    06:00 -16°C° 0.1 mm 4 mps 597 mmHg 90%
    07:00 -16°C° 0 mm 4 mps 597 mmHg 88%
    08:00 -16°C° 0 mm 4 mps 598 mmHg 86%
    09:00 -16°C° 0 mm 4 mps 598 mmHg 84%
    10:00 -13°C° 0.1 mm 3 mps 599 mmHg 83%
    11:00 -12°C° 0.1 mm 3 mps 599 mmHg 83%
    12:00 -9°C° 0.1 mm 3 mps 599 mmHg 82%
    13:00 -9°C° 0.7 mm 3 mps 599 mmHg 84%
    14:00 -9°C° 0.7 mm 3 mps 599 mmHg 87%
    15:00 -8°C° 0.7 mm 2 mps 598 mmHg 90%
    16:00 -8°C° 1.1 mm 3 mps 599 mmHg 91%
    17:00 -7°C° 1.1 mm 3 mps 599 mmHg 91%
    18:00 -7°C° 1.1 mm 3 mps 599 mmHg 92%
    19:00 -6°C° 1.2 mm 3 mps 600 mmHg 92%
    20:00 -5°C° 1.2 mm 4 mps 601 mmHg 92%
    21:00 -5°C° 1.2 mm 4 mps 601 mmHg 92%
    22:00 -5°C° 0.8 mm 4 mps 601 mmHg 92%
    23:00 -6°C° 0.8 mm 5 mps 601 mmHg 91%

    25 January, Friday

    Time Temperature Precipitation Wind Pressure Humidity
    00:00 -6°C° 0.8 mm 5 mps 601 mmHg 91%
    01:00 -6°C° 0.3 mm 5 mps 601 mmHg 91%
    02:00 -8°C° 0.3 mm 6 mps 601 mmHg 90%
    03:00 -8°C° 0.3 mm 6 mps 600 mmHg 90%
    04:00 -8°C° 0.2 mm 5 mps 601 mmHg 90%
    05:00 -8°C° 0.2 mm 5 mps 601 mmHg 89%
    06:00 -10°C° 0.2 mm 5 mps 601 mmHg 89%
    07:00 -10°C° 0.2 mm 6 mps 601 mmHg 88%
    08:00 -10°C° 0.2 mm 6 mps 602 mmHg 87%
    09:00 -10°C° 0.2 mm 6 mps 603 mmHg 87%
    10:00 -10°C° 0.1 mm 6 mps 603 mmHg 86%
    11:00 -10°C° 0.1 mm 6 mps 603 mmHg 85%
    12:00 -10°C° 0.1 mm 6 mps 604 mmHg 85%
    13:00 -10°C° 0 mm 6 mps 604 mmHg 84%
    14:00 -10°C° 0 mm 6 mps 604 mmHg 84%
    15:00 -11°C° 0 mm 5 mps 604 mmHg 83%
    16:00 -12°C° 0 mm 5 mps 603 mmHg 85%
    17:00 -13°C° 0 mm 5 mps 603 mmHg 86%
    18:00 -15°C° 0 mm 4 mps 603 mmHg 87%
    19:00 -15°C° 0 mm 4 mps 604 mmHg 86%
    20:00 -16°C° 0 mm 4 mps 604 mmHg 84%
    21:00 -16°C° 0 mm 4 mps 604 mmHg 83%
    22:00 -16°C° 0 mm 4 mps 604 mmHg 79%
    23:00 -16°C° 0 mm 4 mps 604 mmHg 76%
    Show more